When you browse on this site, cookies collect data to enhance your experience and personalize the content and advertising you see.
Visit our Privacy Policy to learn more. By continuing to use the site, you agree to this use of cookies and data.
  • In United Kingdom
  • List of Countries
  • For 7 days
  • Water Temperature
  • Satellite Maps
  • Weather Map
  • Weather Widgets
  • user-avatar
    Login

    Hourly Weather Liverpool

    Today, 17 January, Thursday

    Time Temperature Precipitation Wind Pressure Humidity
    00:00 +3°C° 0 mm 5 mps 750 mmHg 76%
    01:00 +3°C° 0.2 mm 6 mps 751 mmHg 75%
    02:00 +3°C° 0.2 mm 7 mps 752 mmHg 75%
    03:00 +2°C° 0.2 mm 8 mps 753 mmHg 74%
    04:00 +2°C° 0 mm 8 mps 754 mmHg 69%
    05:00 +1°C° 0 mm 8 mps 755 mmHg 63%
    06:00 0°C° 0 mm 7 mps 756 mmHg 59%
    07:00 0°C° 0 mm 7 mps 756 mmHg 58%
    08:00 0°C° 0 mm 7 mps 757 mmHg 57%
    09:00 0°C° 0 mm 7 mps 758 mmHg 56%
    10:00 +2°C° 0 mm 7 mps 758 mmHg 54%
    11:00 +3°C° 0 mm 7 mps 759 mmHg 53%
    12:00 +3°C° 0 mm 7 mps 759 mmHg 51%
    13:00 +3°C° 0 mm 6 mps 760 mmHg 52%
    14:00 +3°C° 0 mm 5 mps 760 mmHg 54%
    15:00 +3°C° 0 mm 5 mps 761 mmHg 55%
    16:00 +3°C° 0 mm 4 mps 761 mmHg 56%
    17:00 +3°C° 0 mm 3 mps 761 mmHg 57%
    18:00 +3°C° 0 mm 2 mps 761 mmHg 58%
    19:00 +4°C° 0 mm 1 mps 762 mmHg 59%
    20:00 +4°C° 0 mm 1 mps 762 mmHg 60%
    21:00 +4°C° 0 mm 1 mps 762 mmHg 60%
    22:00 +4°C° 0 mm 1 mps 762 mmHg 62%
    23:00 +2°C° 0 mm 2 mps 762 mmHg 63%

    Tomorrow, 18 January, Friday

    Time Temperature Precipitation Wind Pressure Humidity
    00:00 +2°C° 0 mm 2 mps 762 mmHg 65%
    01:00 +1°C° 0 mm 3 mps 762 mmHg 65%
    02:00 +1°C° 0 mm 3 mps 761 mmHg 65%
    03:00 0°C° 0 mm 4 mps 761 mmHg 66%
    04:00 0°C° 0 mm 4 mps 761 mmHg 66%
    05:00 0°C° 0 mm 4 mps 760 mmHg 66%
    06:00 0°C° 0 mm 5 mps 760 mmHg 66%
    07:00 0°C° 0 mm 5 mps 760 mmHg 67%
    08:00 0°C° 0 mm 5 mps 759 mmHg 67%
    09:00 -1°C° 0 mm 6 mps 759 mmHg 68%
    10:00 -1°C° 0 mm 6 mps 758 mmHg 67%
    11:00 0°C° 0 mm 7 mps 758 mmHg 66%
    12:00 +1°C° 0 mm 8 mps 758 mmHg 64%
    13:00 +1°C° 0.4 mm 8 mps 757 mmHg 69%
    14:00 +1°C° 0.4 mm 8 mps 756 mmHg 73%
    15:00 +1°C° 0.4 mm 9 mps 756 mmHg 77%
    16:00 +1°C° 0.1 mm 9 mps 756 mmHg 78%
    17:00 +1°C° 0.1 mm 9 mps 755 mmHg 79%
    18:00 +1°C° 0.1 mm 9 mps 755 mmHg 80%
    19:00 +1°C° 0.1 mm 8 mps 755 mmHg 81%
    20:00 +1°C° 0.1 mm 8 mps 755 mmHg 82%
    21:00 +1°C° 0.1 mm 8 mps 754 mmHg 83%
    22:00 +2°C° 0.1 mm 7 mps 754 mmHg 85%
    23:00 +2°C° 0.1 mm 7 mps 754 mmHg 86%

    Day after tomorrow, 19 January, Saturday

    Time Temperature Precipitation Wind Pressure Humidity
    00:00 +3°C° 0.1 mm 6 mps 754 mmHg 88%
    01:00 +3°C° 0.1 mm 6 mps 753 mmHg 89%
    02:00 +3°C° 0.1 mm 6 mps 753 mmHg 90%
    03:00 +3°C° 0.1 mm 5 mps 753 mmHg 91%
    04:00 +3°C° 0.1 mm 5 mps 753 mmHg 92%
    05:00 +3°C° 0.1 mm 5 mps 752 mmHg 92%
    06:00 +3°C° 0.1 mm 5 mps 752 mmHg 93%
    07:00 +4°C° 0 mm 4 mps 752 mmHg 93%
    08:00 +4°C° 0 mm 4 mps 752 mmHg 93%
    09:00 +3°C° 0 mm 3 mps 752 mmHg 93%
    10:00 +4°C° 0 mm 3 mps 752 mmHg 91%
    11:00 +6°C° 0 mm 2 mps 753 mmHg 89%
    12:00 +6°C° 0 mm 2 mps 753 mmHg 87%
    13:00 +7°C° 0 mm 1 mps 753 mmHg 87%
    14:00 +7°C° 0 mm 1 mps 753 mmHg 86%
    15:00 +8°C° 0 mm 1 mps 753 mmHg 86%
    16:00 +7°C° 0 mm 1 mps 753 mmHg 87%
    17:00 +7°C° 0 mm 1 mps 754 mmHg 88%
    18:00 +6°C° 0 mm 1 mps 754 mmHg 89%
    19:00 +6°C° 0 mm 1 mps 755 mmHg 89%
    20:00 +6°C° 0 mm 1 mps 755 mmHg 89%
    21:00 +6°C° 0 mm 1 mps 756 mmHg 89%
    22:00 +6°C° 0 mm 1 mps 756 mmHg 88%
    23:00 +6°C° 0 mm 1 mps 757 mmHg 88%

    20 January, Sunday

    Time Temperature Precipitation Wind Pressure Humidity
    00:00 +6°C° 0 mm 1 mps 757 mmHg 87%
    01:00 +6°C° 0 mm 1 mps 757 mmHg 87%
    02:00 +6°C° 0 mm 1 mps 758 mmHg 87%
    03:00 +6°C° 0 mm 1 mps 758 mmHg 86%
    04:00 +5°C° 0 mm 1 mps 758 mmHg 87%
    05:00 +5°C° 0 mm 1 mps 759 mmHg 88%
    06:00 +5°C° 0 mm 1 mps 759 mmHg 89%
    07:00 +5°C° 0 mm 1 mps 760 mmHg 89%
    08:00 +5°C° 0 mm 1 mps 761 mmHg 90%
    09:00 +5°C° 0 mm 1 mps 761 mmHg 90%
    10:00 +4°C° 0.1 mm 3 mps 762 mmHg 89%
    11:00 +5°C° 0.1 mm 4 mps 763 mmHg 88%
    12:00 +4°C° 0.1 mm 6 mps 763 mmHg 86%
    13:00 +4°C° 0.1 mm 6 mps 764 mmHg 83%
    14:00 +4°C° 0.1 mm 7 mps 764 mmHg 79%
    15:00 +4°C° 0.1 mm 7 mps 764 mmHg 75%
    16:00 +4°C° 0 mm 7 mps 765 mmHg 73%
    17:00 +3°C° 0 mm 7 mps 766 mmHg 71%
    18:00 +3°C° 0 mm 6 mps 767 mmHg 69%
    19:00 +3°C° 0 mm 6 mps 767 mmHg 68%
    20:00 +3°C° 0 mm 5 mps 768 mmHg 67%
    21:00 +2°C° 0 mm 5 mps 769 mmHg 67%
    22:00 +2°C° 0 mm 5 mps 769 mmHg 67%
    23:00 +2°C° 0 mm 5 mps 769 mmHg 66%

    21 January, Monday

    Time Temperature Precipitation Wind Pressure Humidity
    00:00 +2°C° 0 mm 5 mps 770 mmHg 66%
    01:00 +1°C° 0 mm 4 mps 770 mmHg 66%
    02:00 +2°C° 0 mm 3 mps 770 mmHg 66%
    03:00 +2°C° 0 mm 3 mps 770 mmHg 66%
    04:00 +3°C° 0 mm 2 mps 769 mmHg 67%
    05:00 +2°C° 0 mm 2 mps 769 mmHg 67%
    06:00 +3°C° 0 mm 1 mps 769 mmHg 68%
    07:00 +2°C° 0 mm 2 mps 769 mmHg 70%
    08:00 +2°C° 0 mm 2 mps 769 mmHg 71%
    09:00 +3°C° 0 mm 2 mps 768 mmHg 72%
    10:00 +2°C° 0 mm 3 mps 768 mmHg 71%
    11:00 +3°C° 0 mm 3 mps 767 mmHg 69%
    12:00 +4°C° 0 mm 4 mps 766 mmHg 68%
    13:00 +4°C° 0 mm 4 mps 765 mmHg 68%
    14:00 +4°C° 0 mm 4 mps 764 mmHg 68%
    15:00 +3°C° 0 mm 5 mps 763 mmHg 69%
    16:00 +3°C° 0.1 mm 5 mps 761 mmHg 71%
    17:00 +2°C° 0.1 mm 6 mps 760 mmHg 73%
    18:00 +2°C° 0.1 mm 6 mps 759 mmHg 76%
    19:00 +2°C° 0.5 mm 7 mps 757 mmHg 77%
    20:00 +2°C° 0.5 mm 7 mps 755 mmHg 79%
    21:00 +1°C° 0.5 mm 8 mps 754 mmHg 81%
    22:00 +1°C° 0.9 mm 8 mps 752 mmHg 82%
    23:00 +1°C° 0.9 mm 8 mps 751 mmHg 82%

    22 January, Tuesday

    Time Temperature Precipitation Wind Pressure Humidity
    00:00 +1°C° 0.9 mm 8 mps 750 mmHg 83%
    01:00 +1°C° 1.2 mm 9 mps 749 mmHg 82%
    02:00 +1°C° 1.2 mm 9 mps 749 mmHg 80%
    03:00 +1°C° 1.2 mm 9 mps 748 mmHg 79%
    04:00 +1°C° 0.5 mm 9 mps 748 mmHg 77%
    05:00 +1°C° 0.5 mm 9 mps 748 mmHg 76%
    06:00 +1°C° 0.5 mm 8 mps 747 mmHg 74%
    07:00 +1°C° 0.3 mm 8 mps 748 mmHg 73%
    08:00 +1°C° 0.3 mm 9 mps 748 mmHg 72%
    09:00 +1°C° 0.3 mm 9 mps 748 mmHg 70%
    10:00 +2°C° 0.2 mm 9 mps 748 mmHg 70%
    11:00 +2°C° 0.2 mm 9 mps 748 mmHg 69%
    12:00 +2°C° 0.2 mm 9 mps 749 mmHg 68%
    13:00 +2°C° 0.1 mm 9 mps 749 mmHg 68%
    14:00 +2°C° 0.1 mm 9 mps 749 mmHg 67%
    15:00 +2°C° 0.1 mm 8 mps 749 mmHg 67%
    16:00 +2°C° 0 mm 8 mps 749 mmHg 67%
    17:00 +1°C° 0 mm 8 mps 749 mmHg 67%
    18:00 +1°C° 0 mm 8 mps 750 mmHg 67%
    19:00 +1°C° 0.1 mm 8 mps 750 mmHg 68%
    20:00 +2°C° 0.1 mm 7 mps 751 mmHg 69%
    21:00 +2°C° 0.1 mm 7 mps 751 mmHg 71%
    22:00 +2°C° 0.1 mm 7 mps 752 mmHg 72%
    23:00 +2°C° 0.1 mm 7 mps 752 mmHg 73%
    Show more